This demonstration page uses our WeatherBlox Daily Observations layout. Learn more.

40.92945, -100.16068

Hourly Observations for August 31, 2019

Temp ( °F °C ) Dew Point ( °F °C ) Humidity (%) Winds ( mph kmh ) Pressure ( in mb ) Visibility ( mi km ) Precip ( " mm )
12:15 am 00:15 Partly Cloudy 66 18.8 65 18.1 96 96 SE 9 15 30.09 1019 10 16.09344 0 0
12:35 am 00:35 Partly Cloudy 65 18.5 64 18 97 97 SE 10 17 30.09 1019 10 16.09344 0 0
12:55 am 00:55 Mostly Cloudy 65 18.6 65 18.1 97 97 SE 7 11 30.12 1020 10 16.09344 0 0
1:15 am 01:15 Cloudy 65 18.6 65 18.1 97 97 SE 5 7 30.12 1020 10 16.09344 0 0
1:35 am 01:35 Cloudy 66 18.7 65 18.1 96 96 SSE 5 7 30.12 1020 10 16.09344 0 0
1:55 am 01:55 Cloudy 66 18.8 65 18.1 96 96 SE 6 9 30.09 1019 10 16.09344 0 0
2:15 am 02:15 Cloudy 66 18.9 65 18.1 95 95 SE 8 13 30.09 1019 10 16.09344 0 0
2:35 am 02:35 Cloudy 66 18.8 65 18.1 96 96 SSE 12 19 30.09 1019 10 16.09344 0 0
2:55 am 02:55 Cloudy 66 18.8 64 18 95 95 S 8 13 30.09 1019 10 16.09344 0 0
3:15 am 03:15 Cloudy 66 18.8 64 18 95 95 SSE 10 17 30.06 1018 10 16.09344 0 0
3:35 am 03:35 Cloudy 66 19 64 18 94 94 S 9 15 30.06 1018 10 16.09344 0 0
3:55 am 03:55 Cloudy 66 18.9 64 18 95 95 S 12 19 30.06 1018 10 16.09344 0 0
4:15 am 04:15 Cloudy 66 19 64 17.5 91 91 S 14 22 30.06 1018 10 16.09344 0 0
4:35 am 04:35 Cloudy 66 18.7 63 17.3 92 92 S 12 19 30.06 1018 10 16.09344 0 0
4:55 am 04:55 Cloudy 65 18.6 63 17.2 92 92 S 12 19 30.03 1017 10 16.09344 0 0
5:15 am 05:15 Cloudy 65 18.5 63 17.1 92 92 S 10 17 30.03 1017 10 16.09344 0 0
5:35 am 05:35 Cloudy 65 18.5 63 17.2 92 92 SSE 10 17 30.03 1017 10 16.09344 0 0
5:55 am 05:55 Cloudy 65 18.5 63 17.1 92 92 SSE 8 13 30.03 1017 10 16.09344 0 0
6:15 am 06:15 Cloudy 65 18.2 63 17 93 93 SE 8 13 30.06 1018 10 16.09344 0 0
6:35 am 06:35 Cloudy 65 18.1 62 16.9 93 93 SSE 8 13 30.06 1018 10 16.09344 0 0
6:55 am 06:55 Cloudy 65 18.2 62 16.7 91 91 SE 10 17 30.06 1018 10 16.09344 0 0
7:15 am 07:15 Cloudy 65 18.1 62 16.6 91 91 SE 9 15 30.06 1018 10 16.09344 0 0
7:35 am 07:35 Cloudy 64 18 62 16.6 92 92 SE 9 15 30.06 1018 10 16.09344 0 0
7:55 am 07:55 Cloudy 64 18 62 16.5 91 91 SE 10 17 30.06 1018 10 16.09344 0 0
8:15 am 08:15 Cloudy 64 18 62 16.5 91 91 ESE 7 11 30.06 1018 10 16.09344 0 0
8:35 am 08:35 Cloudy 65 18.1 62 16.6 91 91 SE 8 13 30.06 1018 10 16.09344 0 0
8:55 am 08:55 Cloudy 65 18.2 62 16.7 91 91 SE 9 15 30.09 1019 10 16.09344 0 0
9:15 am 09:15 Cloudy 65 18.6 62 16.9 90 90 SE 10 17 30.06 1018 10 16.09344 0 0
9:35 am 09:35 Cloudy 66 18.7 63 17.2 91 91 SSE 13 20 30.06 1018 10 16.09344 0 0
9:55 am 09:55 Cloudy 66 18.9 63 17.4 91 91 SSE 9 15 30.09 1019 10 16.09344 0 0
10:15 am 10:15 Cloudy 67 19.4 63 17.4 88 88 SE 12 19 30.06 1018 10 16.09344 0 0
10:35 am 10:35 Cloudy 67 19.3 64 17.5 89 89 SSE 9 15 30.09 1019 10 16.09344 0 0
10:55 am 10:55 Cloudy 66 19.1 63 17.2 89 89 S 10 17 30.09 1019 10 16.09344 0 0
11:15 am 11:15 Cloudy 66 19 63 17.2 89 89 SSW 10 17 30.09 1019 10 16.09344 0 0
11:35 am 11:35 Cloudy 67 19.5 64 17.5 88 88 SSE 6 9 30.09 1019 10 16.09344 0 0
11:55 am 11:55 Cloudy 67 19.5 64 17.6 89 89 S 7 11 30.09 1019 10 16.09344 0 0
12:15 pm 12:15 Cloudy 69 20.3 65 18.1 87 87 SSE 7 11 30.09 1019 10 16.09344 0 0
12:35 pm 12:35 Cloudy 69 20.7 65 18.1 85 85 SSE 3 6 30.06 1018 10 16.09344 0 0
12:55 pm 12:55 Cloudy 71 21.4 65 18.2 82 82 S 3 6 30.03 1017 10 16.09344 0 0
1:15 pm 13:15 Cloudy 72 22.1 65 18.5 80 80 SE 7 11 30.03 1017 10 16.09344 0 0
1:35 pm 13:35 Mostly Cloudy 72 22.1 65 18.4 80 80 SE 9 15 30.03 1017 10 16.09344 0 0
1:55 pm 13:55 Mostly Cloudy 73 22.8 66 18.8 78 78 SE 7 11 30.03 1017 10 16.09344 0 0
2:15 pm 14:15 Mostly Cloudy 73 23 66 19.1 79 79 SSE 7 11 30.03 1017 10 16.09344 0 0
2:35 pm 14:35 Cloudy 74 23.1 66 18.9 77 77 SE 9 15 30 1016 10 16.09344 0 0
2:55 pm 14:55 Cloudy 73 23 66 18.8 77 77 SSE 9 15 30 1016 10 16.09344 0 0
3:15 pm 15:15 Cloudy 75 23.7 67 19.4 77 77 SE 10 17 30 1016 10 16.09344 0 0
3:35 pm 15:35 Cloudy 75 23.9 67 19.2 75 75 SE 9 15 30 1016 10 16.09344 0 0
3:55 pm 15:55 Cloudy 73 23 66 19.1 79 79 SSE 9 15 30 1016 10 16.09344 0 0
4:15 pm 16:15 Cloudy 74 23.4 67 19.3 78 78 SE 10 17 30 1016 10 16.09344 0 0
4:35 pm 16:35 Partly Cloudy 73 22.9 66 18.8 78 78 SE 9 15 30 1016 10 16.09344 0 0
4:55 pm 16:55 Partly Cloudy 74 23.6 67 19.2 76 76 SSE 9 15 30 1016 10 16.09344 0 0
5:15 pm 17:15 Partly Cloudy 75 23.8 67 19.2 76 76 SSE 13 20 30 1016 10 16.09344 0 0
5:35 pm 17:35 Mostly Cloudy 73 22.6 66 18.8 79 79 SE 10 17 30 1016 10 16.09344 0 0
5:55 pm 17:55 Mostly Cloudy 74 23.2 66 19 77 77 SE 10 17 30 1016 10 16.09344 0 0
6:15 pm 18:15 Mostly Cloudy 74 23.1 66 19 78 78 SE 12 19 30 1016 10 16.09344 0 0
6:35 pm 18:35 Mostly Cloudy 73 22.9 66 18.9 78 78 SE 12 19 30 1016 10 16.09344 0 0
7:15 pm 19:15 Partly Cloudy 71 21.7 65 18.3 81 81 SSE 12 19 30 1016 10 16.09344 0 0
7:35 pm 19:35 Sunny 70 21.1 64 18 83 83 SE 10 17 30 1016 10 16.09344 0 0
7:55 pm 19:55 Sunny 69 20.5 64 17.6 84 84 SSE 10 17 30.03 1017 10 16.09344 0 0
8:15 pm 20:15 Clear 67 19.6 64 17.6 88 88 SE 9 15 30.03 1017 10 16.09344 0 0
8:35 pm 20:35 Clear 67 19.3 64 17.6 90 90 SE 9 15 30.03 1017 10 16.09344 0 0
8:55 pm 20:55 Clear 66 18.9 64 17.6 92 92 SE 9 15 30.03 1017 10 16.09344 0 0
9:15 pm 21:15 Clear 65 18.2 63 17.4 95 95 SSE 9 15 30.03 1017 10 16.09344 0 0
9:35 pm 21:35 Clear 64 18 63 17 94 94 SSE 8 13 30.06 1018 10 16.09344 0 0
9:55 pm 21:55 Clear 64 17.5 62 16.8 96 96 SSE 8 13 30.09 1019 10 16.09344 0 0
10:15 pm 22:15 Clear 63 17.2 62 16.6 96 96 SSE 7 11 30.09 1019 10 16.09344 0 0
10:35 pm 22:35 Clear 63 17 62 16.5 97 97 SSE 7 11 30.09 1019 10 16.09344 0 0
10:55 pm 22:55 Clear 63 17 62 16.5 97 97 SSE 7 11 30.09 1019 10 16.09344 0 0
11:15 pm 23:15 Clear 62 16.7 61 16.2 97 97 S 6 9 30.09 1019 10 16.09344 0 0
11:35 pm 23:35 Clear 62 16.7 61 16.2 97 97 S 6 9 30.12 1020 10 16.09344 0 0
11:55 pm 23:55 Clear 62 16.5 61 16.1 98 98 S 6 9 30.12 1020 10 16.09344 0 0

Powered by AerisWeather